Regional Weather Roundup
Issued by NWS

Home | Current Version | Previous Version | Text Only | Print | Product List | Glossary On
Versions: 1 2 3 4 5 6 7 8 9 10 11 12 13 14 15 16 17 18 19 20 21 22 23 24 25 26 27
000
ASUS42 KTBW 281816
RWRFL
FLORIDA REGIONAL WEATHER ROUNDUP
NATIONAL WEATHER SERVICE TAMPA BAY RUSKIN FL
200 PM EDT TUE MAR 28 2017

NOTE: "FAIR" INDICATES FEW OR NO CLOUDS BELOW 12,000 FEET WITH NO
SIGNIFICANT WEATHER AND/OR OBSTRUCTIONS TO VISIBILITY.

FLZ001>010-012>015-112-114-115-281900-
PANHANDLE FLORIDA

CITY           SKY/WX    TMP DP  RH WIND       PRES   REMARKS
PENSACOLA      PTSUNNY   80  67  64 S14       30.03F
PENSACOLA NAS  MOSUNNY   78  69  73 S15       30.04F
MILTON NAS     PTSUNNY   82  66  58 S13       30.02F
CRESTVIEW      MOSUNNY   84  59  42 W9        30.03F
DUKE FIELD     PTSUNNY   80  64  58 S12G21    30.02F
VALPARAISO     PTSUNNY   77  68  75 S16G22    30.04F
MARY ESTHER    MOSUNNY   77  64  64 S14       30.04F
PANAMA CITY    FAIR      79  65  62 S15G22    30.04S
TYNDALL AFB    MOSUNNY   77  68  74 SW9       30.05F
APALACHICOLA   PTSUNNY   75  69  81 S13       30.06F

STATION/POSITION SKY/WX   TEMP    WIND        PRES    WAVE   SWELL
                          AIR SEA DIR/SP/G            HT/PER HT/PER
                          (F)     (DEG/KT/KT) (MB)    (FT/S) (FT/S)
PANAMA CITY BEAC           70 72  170/ 10/ 12 1018.1F
TOWER C                    70     180/  5/  6 1018.6F

$$
FLZ011-016>038-118-127-128-134-139-239-281900-
NORTH FLORIDA

CITY           SKY/WX    TMP DP  RH WIND       PRES   REMARKS
MARIANNA       PTSUNNY   80  60  50 W6        30.02F
TALLAHASSEE    MOSUNNY   79  61  53 SW10      30.04F
PERRY          SUNNY     83  57  41 W13       30.05F
CROSS CITY     PTSUNNY   81  61  50 SW10      30.04F
LAKE CITY      FAIR      82  55  39 W10G18    30.03F
GAINESVILLE    SUNNY     84  56  38 VRB6      30.02F
WILLISTON      SUNNY     86  61  42 W8G14     30.04F
PALATKA        PTSUNNY   82  59  44 W12       30.03F
MAYPORT NAS    MOSUNNY   82  57  42 W7        30.01F
JACKSONVILLE   MOSUNNY   85  56  37 NW7       30.00F
JAX NAS        MOSUNNY   83  57  41 VRB6      30.02F
FERNANDINA BEA FAIR      86  57  37 W6        30.00F
ST AUGUSTINE   MOSUNNY   79  63  57 SE12      30.03F
PALM COAST     PTSUNNY   82  57  42 S6        30.02

STATION/POSITION SKY/WX   TEMP    WIND        PRES    WAVE   SWELL
                          AIR SEA DIR/SP/G            HT/PER HT/PER
                          (F)     (DEG/KT/KT) (MB)    (FT/S) (FT/S)
SHELL POINT      NOT AVBL
KEATON BEACH               70     230/  7/  8 1017.8F
CEDAR KEY                  72     220/  5/  7 1019.1F
FERNANDINA                 81 69  290/  2/  5 1016.9F
MAYPORT                    79 69  270/  7/ 11 1016.9F
ST AUGUSTINE               70 69  110/  8/  8 1017.6F

$$
FLZ040-043>046-052-053-057-058-063-144-281900-
INTERIOR CENTRAL FLORIDA

CITY           SKY/WX    TMP DP  RH WIND       PRES   REMARKS
OCALA          MOSUNNY   81  57  44 N6        30.04F
THE VILLAGES     N/A     84  61  45 CALM      29.94F
LEESBURG       SUNNY     83  60  45 MISG      30.05F
SANFORD        MOSUNNY   82  57  42 VRB6      30.03F
ORLANDO EXEC   PTSUNNY   84  58  40 VRB3      30.04F
ORLANDO INTL   MOSUNNY   83  56  39 NE7       30.03F
KISSIMMEE      MOSUNNY   82  59  45 VRB3      30.05F
WINTER HAVEN   MOSUNNY   83  54  36 CALM      30.06F
LAKELAND       MOSUNNY   82  59  44 SE6       30.05F
BARTOW         MOSUNNY   82  55  39 N6        30.05F
OKEECHOBEE     MOSUNNY  N/A N/A N/A N7        30.04F

$$
FLZ041-047-054-059-064-141-147-281900-
EAST CENTRAL FLORIDA

CITY           SKY/WX    TMP DP  RH WIND       PRES   REMARKS
ORMOND BEACH   MOSUNNY   81  64  57 E7        30.03F
DAYTONA BEACH  MOSUNNY   81  64  56 E10       30.03F
DELAND         SUNNY     82  59  44 NW6       30.02F
JFK SPACE CTR  MOSUNNY   81  60  48 SE3       30.03F
TITUSVILLE     MOSUNNY   81  46  30 E10       30.04F
CAPE CANAVERAL MOSUNNY   84  61  45 E12       30.03F
PATRICK AFB    SUNNY     79  63  57 E9        30.04F
MELBOURNE      MOSUNNY   83  62  49 E12       30.04F
VERO BEACH     SUNNY     80  61  52 E13       30.05F
FT PIERCE      SUNNY     79  63  57 E10       30.04F
STUART         MOSUNNY   82  64  54 E12       30.05F

STATION/POSITION SKY/WX   TEMP    WIND        PRES    WAVE   SWELL
                          AIR SEA DIR/SP/G            HT/PER HT/PER
                          (F)     (DEG/KT/KT) (MB)    (FT/S) (FT/S)
TRIDENT PIER               78 73  150/  8/ 11 1018.4F
28.4N   80.5W                 74                N/A     2/10   2/11

$$
FLZ050-056-061-142-242-148-248-149-249-151-251-155-255-
160-260-281900-
WEST CENTRAL FLORIDA

CITY           SKY/WX    TMP DP  RH WIND       PRES   REMARKS
CRYSTAL RIVER  FAIR      81  59  47 W7        30.05F
INVERNESS      PTSUNNY   81  61  50 N3        30.04F HAZE
BROOKSVILLE    SUNNY     84  57  39 CALM      30.05F
CLEARWATER AIR FAIR      81  63  54 W6        30.04F
ST PETE CLEARW MOSUNNY   79  60  52 E7        30.04F
TAMPA INTL     MOSUNNY   81  59  47 SW8       30.05F
TAMPA EXEC     SUNNY     88  55  33 S7        30.05F
PLANT CITY     MOSUNNY   88  59  37 CALM      30.06F
MACDILL AFB    MOSUNNY   83  61  47 W6        30.05F
PETER O KNIGHT SUNNY     84  59  42 S5        30.05F
ST PETERSBURG  SUNNY     80  62  54 S8        30.03F
SARASOTA       SUNNY     78  63  59 W10       30.04F
VENICE         FAIR      77  66  69 SW9       30.06F

STATION/POSITION SKY/WX   TEMP    WIND        PRES    WAVE   SWELL
                          AIR SEA DIR/SP/G            HT/PER HT/PER
                          (F)     (DEG/KT/KT) (MB)    (FT/S) (FT/S)
CLEARWATER BEACH           71 71  220/ 12/ 13 1017.9F
MIDDLE TAMPA BAY           71     270/ 11/ 11 1018.0F
VENICE                     73 72  220/  5/  6 1017.2F

$$
FLZ066-069-070-075>078-162-262-165-265-281900-
SOUTHWEST FLORIDA AND KEYS

CITY           SKY/WX    TMP DP  RH WIND       PRES   REMARKS
PUNTA GORDA    MOSUNNY   86  57  37 N10       30.04F
FT MYERS       SUNNY     88  53  30 VRB5      30.02F
SOUTHWEST INTL SUNNY     85  51  31 VRB3      30.02F
NAPLES         MOSUNNY   81  59  47 W14       30.03F
IMMOKALEE      FAIR      84  52  32 SE7G14    30.02F
MARATHON       MOSUNNY   84  69  60 NE9       30.03F
KEY WEST NAS   MOSUNNY   82  65  56 E9        30.03F
KEY WEST INTL  MOSUNNY   82  69  64 NE13      30.03F

STATION/POSITION SKY/WX   TEMP    WIND        PRES    WAVE   SWELL
                          AIR SEA DIR/SP/G            HT/PER HT/PER
                          (F)     (DEG/KT/KT) (MB)    (FT/S) (FT/S)
NAPLES           NOT AVBL
DRY TORTUGAS               74      60/ 11/ 12 1017.1F
LONG KEY                   74 77   80/  4/  6 1018.0F
MOLASSES REEF              74 78   30/  3/  4 1018.0F

$$
FLZ067-068-071>074-168-172>174-281900-
SOUTHEAST FLORIDA

CITY           SKY/WX    TMP DP  RH WIND       PRES   REMARKS
W PALM BEACH   MOSUNNY   80  60  50 E12       30.04F
FT LAUDER-EXEC PTSUNNY   83  63  50 NE9       30.03F
FT LAUDERDALE  MOSUNNY   82  65  56 SE8       30.02F
POMPANO BEACH  MOSUNNY   80  65  59 E8        30.03F
PEMBROKE PINES MOSUNNY   84  61  45 SE7       30.04F
OPA LOCKA      CLOUDY    80  60  50 VRB3      30.03F
MIAMI          PTSUNNY   82  63  51 E6        30.03F
WEST KENDALL   PTSUNNY   84  60  44 VRB6      30.03F
HOMESTEAD      SUNNY     81  67  62 E8        30.02F

STATION/POSITION SKY/WX   TEMP    WIND        PRES    WAVE   SWELL
                          AIR SEA DIR/SP/G            HT/PER HT/PER
                          (F)     (DEG/KT/KT) (MB)    (FT/S) (FT/S)
PORT EVERGLADES            79      70/  4/  7 1017.2F
VIRGINIA KEY               76      90/  6/  8 1017.8F
LAKE WORTH                         70/  7/ 10   N/A
FOWEY ROCKS                75 77   70/  4/  5 1017.8F
SETTLEMENT POINT           73      40/  5/  6 1017.6F

$$





USA.gov is the U.S. government's official web portal to all federal, state and local government web resources and services.